Date String (YYYY-MM-DD hh:mm:ss) UTC,Instrument flags,absolute air pressure of the measurement (hPa),sample flow rate (lpm),inlet stack bypass flow (lpm),air temperature of the measurement (°C),ambient temperature measured by the external sensor (°C),aerosol sample conditioner tube jacket temperature (°C),OPC LED temperature (°C),internal box temperature (°C),relative humidity of the measurement (%),span deviation,mass concentration of particles derived from Lorenz-Mie calculation of OPC scattering (μg/m³),mass concentration of particles derived from Lorenz-Mie calculation of OPC scattering (μg/m³),mass concentration of particles derived from Lorenz-Mie calculation of OPC scattering (μg/m³)
DateTimeUTC,F1_M11,P_M11,Q1_M11,Q2_M11,T1_M11,T2_M11,T3_M11,T4_M11,T5_M11,U1_M11,ZSPAN_M11,X2_M11,X0_M11,X1_M11
2023-07-04 20:00:00,SystemResetWarning,0832.3,5.00,000.00,028.7,025.9,000.0,037.2,030.2,25.6,0000.0,0003.87,0007.59,0003.46
2023-07-04 20:01:00,SystemResetWarning,0832.3,5.01,000.00,028.7,026.3,000.0,037.2,030.3,25.2,0000.0,0003.87,0007.50,0003.46
2023-07-04 20:02:00,SystemResetWarning,0832.3,4.98,000.00,028.8,026.7,000.0,037.2,030.4,25.1,0000.0,0003.86,0007.51,0003.47
2023-07-04 20:03:00,SystemResetWarning,0832.3,5.01,000.00,028.8,027.0,000.0,037.2,030.5,25.2,0000.0,0003.91,0007.80,0003.48
2023-07-04 20:04:00,SystemResetWarning,0832.3,5.00,000.00,028.8,027.3,000.0,037.3,030.6,25.2,0000.0,0003.94,0007.90,0003.48
2023-07-04 20:05:00,SystemResetWarning,0832.3,5.01,000.00,028.9,027.6,000.0,037.3,030.6,25.3,0000.0,0003.94,0007.84,0003.47
2023-07-04 20:06:00,SystemResetWarning,0832.4,4.99,000.00,028.9,027.8,000.0,037.3,030.7,25.4,0000.0,0003.93,0007.87,0003.48
2023-07-04 20:07:00,SystemResetWarning,0832.4,4.98,000.00,029.0,027.5,000.0,037.3,030.7,25.3,0000.0,0003.94,0008.43,0003.48
2023-07-04 20:08:00,SystemResetWarning,0832.5,5.01,000.00,029.0,026.0,000.0,037.2,030.6,25.1,0000.0,0003.95,0008.02,0003.49
2023-07-04 20:09:00,SystemResetWarning,0832.4,5.01,000.00,028.9,025.6,000.0,037.1,030.4,25.6,0000.0,0003.94,0008.04,0003.49
2023-07-04 20:10:00,SystemResetWarning,0832.3,5.00,000.00,028.9,025.8,000.0,037.2,030.3,25.8,0000.0,0003.94,0008.05,0003.48
2023-07-04 20:11:00,SystemResetWarning,0832.2,4.99,000.00,028.8,026.2,000.0,037.2,030.3,26.4,0000.0,0003.91,0008.02,0003.48
2023-07-04 20:12:00,SystemResetWarning,0832.2,5.00,000.00,028.9,026.6,000.0,037.2,030.4,26.7,0000.0,0003.93,0008.10,0003.49
2023-07-04 20:13:00,SystemResetWarning,0832.1,4.98,000.00,028.9,026.9,000.0,037.3,030.5,26.8,0000.0,0003.95,0008.72,0003.50
2023-07-04 20:14:00,SystemResetWarning,0832.2,4.99,000.00,028.9,027.2,000.0,037.3,030.6,26.6,0000.0,0003.95,0009.15,0003.49
2023-07-04 20:15:00,SystemResetWarning,0832.2,5.02,000.00,029.0,027.5,000.0,037.3,030.7,26.6,0000.0,0003.94,0009.07,0003.49
2023-07-04 20:16:00,SystemResetWarning,0832.2,5.00,000.00,029.0,027.7,000.0,037.4,030.8,26.6,0000.0,0003.96,0009.19,0003.50
2023-07-04 20:17:00,SystemResetWarning,0832.3,4.98,000.00,029.0,026.8,000.0,037.3,030.7,26.6,0000.0,0003.98,0009.33,0003.49
2023-07-04 20:18:00,SystemResetWarning,0832.3,5.01,000.00,029.0,025.0,000.0,037.2,030.4,26.8,0000.0,0003.97,0008.78,0003.49
2023-07-04 20:19:00,SystemResetWarning,0832.5,5.01,000.00,028.9,024.5,000.0,037.1,030.2,27.6,0000.0,0003.94,0008.47,0003.48
2023-07-04 20:20:00,SystemResetWarning,0832.5,5.01,000.00,028.8,024.8,000.0,037.1,030.0,28.3,0000.0,0003.91,0008.51,0003.47
2023-07-04 20:21:00,SystemResetWarning,0832.6,5.00,000.00,028.7,025.3,000.0,037.1,030.0,27.7,0000.0,0003.91,0009.15,0003.48
2023-07-04 20:22:00,SystemResetWarning,0832.6,5.00,000.00,028.7,025.8,000.0,037.2,030.2,28.0,0000.0,0003.93,0009.24,0003.49
2023-07-04 20:23:00,SystemResetWarning,0832.5,4.99,000.00,028.7,026.2,000.0,037.2,030.3,28.7,0000.0,0003.90,0010.10,0003.48
2023-07-04 20:24:00,SystemResetWarning,0832.5,5.00,000.00,028.7,026.6,000.0,037.2,030.3,29.7,0000.0,0003.94,0010.12,0003.48
2023-07-04 20:25:00,SystemResetWarning,0832.6,5.00,000.00,028.8,026.9,000.0,037.2,030.4,29.1,0000.0,0003.92,0009.99,0003.48
2023-07-04 20:26:00,SystemResetWarning,0832.5,5.01,000.00,028.8,027.2,000.0,037.2,030.5,30.2,0000.0,0003.93,0010.23,0003.50
2023-07-04 20:27:00,SystemResetWarning,0832.5,5.01,000.00,028.9,027.5,000.0,037.3,030.6,27.9,0000.0,0003.96,0011.00,0003.51
2023-07-04 20:28:00,SystemResetWarning,0832.6,4.99,000.00,028.9,027.7,000.0,037.3,030.7,29.5,0000.0,0003.98,0010.83,0003.53
2023-07-04 20:29:00,SystemResetWarning,0832.5,5.00,000.00,029.0,027.9,000.0,037.3,030.7,29.2,0000.0,0004.03,0011.65,0003.55
2023-07-04 20:30:00,SystemResetWarning,0832.6,4.99,000.00,029.0,027.4,000.0,037.3,030.7,29.3,0000.0,0004.09,0012.36,0003.58
2023-07-04 20:31:00,SystemResetWarning,0832.6,5.01,000.00,029.0,025.5,000.0,037.2,030.5,30.1,0000.0,0004.18,0012.84,0003.62
2023-07-04 20:32:00,SystemResetWarning,0832.5,5.00,000.00,028.9,024.5,000.0,037.1,030.2,31.4,0000.0,0004.26,0012.38,0003.64
2023-07-04 20:33:00,SystemResetWarning,0832.5,5.01,000.00,028.8,024.5,000.0,037.0,030.0,30.2,0000.0,0004.30,0012.53,0003.67
2023-07-04 20:34:00,SystemResetWarning,0832.5,5.01,000.00,028.7,024.9,000.0,037.1,030.0,29.7,0000.0,0004.35,0012.30,0003.69
2023-07-04 20:35:00,SystemResetWarning,0832.4,5.00,000.00,028.7,025.5,000.0,037.1,030.1,33.0,0000.0,0004.34,0012.92,0003.71
2023-07-04 20:36:00,SystemResetWarning,0832.3,5.00,000.00,028.7,025.9,000.0,037.1,030.2,30.7,0000.0,0004.34,0012.83,0003.73
2023-07-04 20:37:00,SystemResetWarning,0832.3,4.99,000.00,028.7,026.4,000.0,037.1,030.3,31.3,0000.0,0004.36,0012.81,0003.75
2023-07-04 20:38:00,SystemResetWarning,0832.2,5.00,000.00,028.7,026.8,000.0,037.2,030.4,32.4,0000.0,0004.34,0012.17,0003.76
2023-07-04 20:39:00,SystemResetWarning,0832.2,4.99,000.00,028.8,027.1,000.0,037.2,030.5,34.1,0000.0,0004.34,0012.35,0003.77
2023-07-04 20:40:00,SystemResetWarning,0832.2,5.00,000.00,028.9,027.4,000.0,037.2,030.6,32.4,0000.0,0004.32,0011.65,0003.78
2023-07-04 20:41:00,SystemResetWarning,0832.2,4.99,000.00,029.0,027.6,000.0,037.3,030.7,31.7,0000.0,0004.31,0011.04,0003.78
2023-07-04 20:42:00,SystemResetWarning,0832.1,5.01,000.00,029.1,027.8,000.0,037.3,030.7,35.2,0000.0,0004.30,0010.51,0003.78
2023-07-04 20:43:00,SystemResetWarning,0832.2,5.00,000.00,029.2,027.1,000.0,037.2,030.8,33.4,0000.0,0004.27,0010.94,0003.78
2023-07-04 20:44:00,SystemResetWarning,0832.1,4.99,000.00,029.3,025.7,000.0,037.2,030.6,30.7,0000.0,0004.26,0011.52,0003.77
2023-07-04 20:45:00,SystemResetWarning,0832.1,5.02,000.00,029.2,025.5,000.0,037.1,030.4,29.7,0000.0,0004.25,0011.67,0003.77
2023-07-04 20:46:00,SystemResetWarning,0832.1,4.99,000.00,029.2,025.8,000.0,037.2,030.3,29.1,0000.0,0004.29,0010.99,0003.77
2023-07-04 20:47:00,SystemResetWarning,0832.1,5.00,000.00,029.2,026.2,000.0,037.3,030.4,30.4,0000.0,0004.31,0010.49,0003.77
2023-07-04 20:48:00,SystemResetWarning,0832.1,5.01,000.00,029.2,026.6,000.0,037.4,030.5,30.5,0000.0,0004.30,0010.43,0003.76
2023-07-04 20:49:00,SystemResetWarning,0832.0,5.00,000.00,029.3,026.9,000.0,037.4,030.6,29.5,0000.0,0004.31,0010.24,0003.75
2023-07-04 20:50:00,SystemResetWarning,0832.2,4.99,000.00,029.3,027.3,000.0,037.4,030.7,31.5,0000.0,0004.31,0010.11,0003.74
2023-07-04 20:51:00,SystemResetWarning,0832.2,4.99,000.00,029.3,027.5,000.0,037.5,030.7,32.8,0000.0,0004.31,0010.23,0003.72
2023-07-04 20:52:00,SystemResetWarning,0832.2,5.01,000.00,029.4,027.8,000.0,037.5,030.8,30.3,0000.0,0004.31,0010.73,0003.72
2023-07-04 20:53:00,SystemResetWarning,0832.2,5.01,000.00,029.4,027.3,000.0,037.5,030.8,29.0,0000.0,0004.30,0010.86,0003.71
2023-07-04 20:54:00,SystemResetWarning,0832.2,4.98,000.00,029.4,025.6,000.0,037.4,030.6,29.2,0000.0,0004.30,0011.13,0003.70
2023-07-04 20:55:00,SystemResetWarning,0832.2,5.01,000.00,029.3,024.7,000.0,037.3,030.4,29.9,0000.0,0004.29,0011.23,0003.69
2023-07-04 20:56:00,SystemResetWarning,0832.1,5.01,000.00,029.2,024.8,000.0,037.3,030.2,29.9,0000.0,0004.28,0010.47,0003.69
2023-07-04 20:57:00,SystemResetWarning,0832.1,5.01,000.00,029.1,025.2,000.0,037.4,030.2,31.4,0000.0,0004.25,0010.38,0003.68
2023-07-04 20:58:00,SystemResetWarning,0832.1,4.99,000.00,029.1,025.7,000.0,037.4,030.3,31.7,0000.0,0004.23,0010.45,0003.67
2023-07-04 20:59:00,SystemResetWarning,0832.0,5.00,000.00,029.1,026.2,000.0,037.4,030.4,32.4,0000.0,0004.25,0010.48,0003.68
